NKS1006 KDTW-KDFW

Flight info

Callsign NKS1006
Flight time N/A
Altitude 32000
Route BARII3 SINKR PXV J131 LIT MEEOW FEWWW SEEVR4
Aircraft A321/M-SDE3FGHIRWY/LB1

Departure

Time 2026-05-05 13:31
Airport Detroit Metropolitan Wayne County Airport (KDTW)

Arrival

Time N/A
Airport Dallas Fort Worth International Airport (KDFW)
Time Latitude Longitude Altitude Speed Heading
2026-05-05 12:13 42.21436 -83.35302 649 ft 0 kts 298°
2026-05-05 13:20 42.21424 -83.35277 647 ft 4 kts 315°
2026-05-05 13:21 42.21403 -83.35259 648 ft 4 kts 358°
2026-05-05 13:21 42.21387 -83.35262 647 ft 0 kts 26°
2026-05-05 13:24 42.21402 -83.35253 649 ft 7 kts 26°
2026-05-05 13:24 42.21435 -83.35231 647 ft 5 kts 26°
2026-05-05 13:24 42.21472 -83.35213 647 ft 6 kts
2026-05-05 13:25 42.21516 -83.35215 647 ft 7 kts 356°
2026-05-05 13:25 42.21550 -83.35182 647 ft 6 kts 77°
2026-05-05 13:25 42.21552 -83.35120 647 ft 7 kts 85°
2026-05-05 13:25 42.21575 -83.35058 648 ft 8 kts 44°
2026-05-05 13:26 42.21620 -83.35002 647 ft 10 kts 43°
2026-05-05 13:26 42.21672 -83.34935 648 ft 11 kts 43°
2026-05-05 13:26 42.21727 -83.34864 649 ft 11 kts 43°
2026-05-05 13:26 42.21787 -83.34788 647 ft 12 kts 44°
2026-05-05 13:27 42.21835 -83.34695 647 ft 12 kts 89°
2026-05-05 13:27 42.21836 -83.34581 648 ft 12 kts 89°
2026-05-05 13:27 42.21876 -83.34486 649 ft 13 kts 31°
2026-05-05 13:27 42.21957 -83.34426 647 ft 14 kts 28°
2026-05-05 13:28 42.22049 -83.34358 647 ft 16 kts 28°
2026-05-05 13:28 42.22153 -83.34282 647 ft 18 kts 28°
2026-05-05 13:28 42.22262 -83.34201 647 ft 18 kts 28°
2026-05-05 13:28 42.22374 -83.34119 647 ft 18 kts 28°
2026-05-05 13:29 42.22488 -83.34035 647 ft 19 kts 28°
2026-05-05 13:29 42.22602 -83.33951 647 ft 19 kts 28°
2026-05-05 13:29 42.22720 -83.33865 647 ft 20 kts 28°
2026-05-05 13:29 42.22750 -83.33786 647 ft 9 kts 119°
2026-05-05 13:30 42.22711 -83.33720 647 ft 9 kts 156°
2026-05-05 13:30 42.22657 -83.33743 647 ft 9 kts 208°
2026-05-05 13:30 42.22527 -83.33838 647 ft 51 kts 208°
2026-05-05 13:30 42.22011 -83.34219 647 ft 116 kts 208°
2026-05-05 13:31 42.21132 -83.34867 659 ft 168 kts 210°
2026-05-05 13:31 42.20058 -83.35583 1306 ft 166 kts 209°
2026-05-05 13:31 42.19039 -83.36262 2091 ft 164 kts 208°
2026-05-05 13:31 42.17945 -83.36760 2618 ft 166 kts 202°
2026-05-05 13:32 42.16834 -83.37200 3183 ft 166 kts 203°
2026-05-05 13:32 42.15727 -83.37625 3742 ft 165 kts 202°
2026-05-05 13:32 42.14622 -83.38046 4275 ft 164 kts 203°
2026-05-05 13:32 42.13523 -83.38462 4814 ft 164 kts 204°
2026-05-05 13:33 42.12377 -83.38905 5075 ft 181 kts 204°
2026-05-05 13:33 42.11092 -83.39406 5234 ft 203 kts 203°
2026-05-05 13:33 42.09666 -83.39960 5372 ft 224 kts 202°
2026-05-05 13:33 42.08113 -83.40556 5650 ft 240 kts 202°
2026-05-05 13:34 42.06442 -83.41172 6046 ft 254 kts 200°
2026-05-05 13:34 42.04714 -83.41750 6698 ft 257 kts 200°
2026-05-05 13:34 42.02965 -83.42316 7388 ft 259 kts 200°
2026-05-05 13:34 42.01205 -83.42877 8063 ft 261 kts 199°
2026-05-05 13:35 41.99427 -83.43448 8689 ft 264 kts 199°